Miscellaneous Local Product
Issued by NWS North Platte, NE

Home | Current Version | Previous Version | Graphics & Text | Print | Product List | Glossary On
Versions: 1 2 3 4 5 6 7 8 9 10 11 12 13 14 15 16 17 18 19 20 21 22 23 24 25 26 27 28 29 30 31 32 33 34 35 36 37 38 39 40 41 42 43 44 45 46 47 48 49 50
000
AXUS43 KLBF 011110
MISLBF


WESTERN AND NORTH CENTRAL NEBRASKA HOURLY WEATHER ROUNDUP
NATIONAL WEATHER SERVICE NORTH PLATTE NE
600 AM CDT SUN MAY 01 2016

NOTE: "FAIR" INDICATES FEW OR NO CLOUDS BELOW 12,000 FEET WITH NO
SIGNIFICANT WEATHER AND/OR OBSTRUCTIONS TO VISIBILITY.

NOTE: STATIONS NOT REPORTING VARIABLES SUCH AS SKY/WEATHER OR
PRESSURE ARE PROVIDED BY RAWS AND APRS NETWORKS AND ARE NOT UNDER
NATIONAL WEATHER SERVICE QUALITY CONTROL.

...OBSERVATIONS IN AND NEAR THE EASTERN PANHANDLE OF NEBRASKA...

CITY           SKY/WX    TMP DP  RH WIND       PRES   REMARKS
PINE RIDGE     CLOUDY    34  30  85 N7        30.24R WCI  28
CHADRON        CLOUDY    37  32  82 N6        30.26R WCI  32
ALLIANCE       CLOUDY    34  33  96 NW10      30.21S WCI  26
SIDNEY         CLOUDY    34  32  92 N17       30.20R WCI  23
CRESCENT LAKE    N/A     34  34  99 N13         N/A  WCI  25
BIG SPRINGS      N/A     35  34  95 N6          N/A  WCI  30
$$

...OBSERVATIONS IN NORTHERN NEBRASKA AND FAR SOUTHERN SOUTH DAKOTA...

CITY           SKY/WX    TMP DP  RH WIND       PRES   REMARKS
WINNER         FAIR      36  33  89 N8        30.18R WCI  30
VALENTINE      CLEAR     38  35  89 N14       30.17R WCI  30
THEDFORD         N/A     37  36  99 N13       30.15R WCI  28
AINSWORTH      DRIZZLE   40  39  97 N10       30.15R WCI  34
O`NEILL        LGT RAIN  42  40  93 N15G21    30.11R
ORD            LGT RAIN  41  39  93 N17       30.05R
BROKEN BOW     LGT RAIN  40  38  93 N20G28    30.06R WCI  30
VALENTINE NWR    N/A     38  38  99 N9G18       N/A  WCI  31
BUTTE            N/A     40  39  95 N10         N/A  WCI  33
HALSEY           N/A     36  36 100 N8          N/A  WCI  30
CHAMBERS         N/A     41  40  98 N7G15       N/A
EWING            N/A     42  41  96 NE6G13      N/A
$$

...OBSERVATIONS IN SOUTHWEST NEBRASKA AND FAR NORTHEAST COLORADO...

CITY           SKY/WX    TMP DP  RH WIND       PRES   REMARKS
HOLYOKE        DRIZZLE   36  34  93 N21       30.16R WCI  24
IMPERIAL       CLOUDY    35  33  92 N21       30.14R WCI  24
OGALLALA       CLOUDY    37  34  89 N18       30.16R WCI  27
NORTH PLATTE   CLOUDY    36  34  92 N10       30.12R WCI  28
MCCOOK         LGT RAIN  37  34  89 N17       30.08R WCI  27
LEXINGTON      LGT RAIN  38  35  89 N15       30.06R WCI  30
PAXTON           N/A     35  34  95 N12         N/A  WCI  27
STAPLETON        N/A     35  34  97 CALM        N/A
GOTHENBURG       N/A     35  33  91 NW9         N/A  WCI  28
CALLAWAY         N/A     37  36  96 NE12        N/A  WCI  29
$$

...OBSERVATIONS IN CENTRAL LINCOLN COUNTY AREA...

CITY           SKY/WX    TMP DP  RH WIND       PRES   REMARKS
N.P. AIRPORT   CLOUDY    36  34  92 N10       30.12R WCI  28
N.P. DOWNTOWN    N/A     35  35  99 N7G14       N/A  WCI  29
N.P. HILLCREST   N/A     35  35  99 N16         N/A  WCI  25
$$

...SOME OBSERVATIONS FROM AROUND THE REGION...

CITY           SKY/WX    TMP DP  RH WIND       PRES   REMARKS
DENVER         FLURRIES  33  29  85 N13       30.24R WCI  24
LARAMIE        CLOUDY    26  23  88 NE9       30.22R WCI  17
CHEYENNE       CLOUDY    31  28  89 N16G23    30.22R WCI  20
SCOTTSBLUFF    CLOUDY    37  33  85 NW8       30.24S WCI  31
RAPID CITY     CLOUDY    36  30  79 NW13      30.27R WCI  27
BISMARCK       CLEAR     34  29  82 W6        30.31S WCI  29
PIERRE         PTCLDY    34  29  82 NE3       30.22R
SIOUX FALLS    LGT RAIN  41  38  89 NE13      30.11S
OMAHA          DRIZZLE   45  43  93 NE9       29.95R
GRAND ISLAND   LGT RAIN  40  39  97 N15       30.01R FOG     WCI  32
KANSAS CITY    CLOUDY    50  47  89 SW5       29.90R
WICHITA        MOCLDY    43  39  86 W8        29.98R
OKLAHOMA CITY  PTCLDY    47  38  71 NW20G28   30.03R
DALLAS         PTCLDY    60  48  64 N13       29.93R
AMARILLO       CLOUDY    40  33  76 N20G26    30.11R WCI  30
DODGE CITY     CLOUDY    39  33  79 NW18G28   30.04R WCI  30
HAYS           CLOUDY    43  34  70 NW13      30.00R
GOODLAND       CLOUDY    35  33  92 N15G24    30.11R WCI  25
$$




USA.gov is the U.S. government's official web portal to all federal, state and local government web resources and services.